PHPRY LFKJ-LIMJ

Flight info

Callsign PHPRY
Flight time 1h 4m
Altitude 17000
Route TORTU M858 UNITA
Aircraft PC12/L-SDFGRWY/S

Departure

Time 2026-04-21 18:46
Airport Ajaccio Napoléon Bonaparte airport (LFKJ)

Arrival

Time 2026-04-21 19:50
Airport Genoa Cristoforo Colombo Airport (LIMJ)
Time Latitude Longitude Altitude Speed Heading
2026-04-21 18:04 41.92188 8.79346 26 ft 0 kts 276°
2026-04-21 18:37 41.92188 8.79334 25 ft 2 kts 262°
2026-04-21 18:37 41.92170 8.79316 26 ft 2 kts 143°
2026-04-21 18:37 41.92168 8.79361 25 ft 7 kts 91°
2026-04-21 18:38 41.92178 8.79440 25 ft 8 kts 51°
2026-04-21 18:38 41.92224 8.79500 24 ft 9 kts 31°
2026-04-21 18:38 41.92289 8.79525 24 ft 10 kts 27°
2026-04-21 18:38 41.92297 8.79622 23 ft 11 kts 95°
2026-04-21 18:39 41.92291 8.79730 23 ft 12 kts 94°
2026-04-21 18:39 41.92291 8.79844 23 ft 10 kts 52°
2026-04-21 18:39 41.92357 8.79894 23 ft 11 kts 25°
2026-04-21 18:39 41.92431 8.79937 24 ft 12 kts 25°
2026-04-21 18:40 41.92509 8.79984 24 ft 12 kts 23°
2026-04-21 18:40 41.92545 8.80008 24 ft 4 kts 27°
2026-04-21 18:40 41.92563 8.80020 24 ft 3 kts 26°
2026-04-21 18:40 41.92599 8.80044 25 ft 11 kts 27°
2026-04-21 18:41 41.92693 8.80104 26 ft 17 kts 25°
2026-04-21 18:41 41.92801 8.80198 27 ft 19 kts 40°
2026-04-21 18:41 41.92897 8.80329 28 ft 19 kts 45°
2026-04-21 18:41 41.92965 8.80453 29 ft 0 kts 89°
2026-04-21 18:43 41.92965 8.80456 29 ft 1 kts 91°
2026-04-21 18:43 41.92955 8.80502 29 ft 8 kts 112°
2026-04-21 18:44 41.92918 8.80561 29 ft 8 kts 163°
2026-04-21 18:44 41.92860 8.80544 28 ft 0 kts 202°
2026-04-21 18:44 41.92860 8.80543 28 ft 0 kts 202°
2026-04-21 18:45 41.92684 8.80433 27 ft 70 kts 206°
2026-04-21 18:45 41.92102 8.80055 213 ft 103 kts 205°
2026-04-21 18:45 41.91397 8.79641 515 ft 114 kts 201°
2026-04-21 18:46 41.90633 8.79200 811 ft 131 kts 202°
2026-04-21 18:46 41.89724 8.78679 1147 ft 152 kts 202°
2026-04-21 18:46 41.88710 8.78051 1473 ft 169 kts 217°
2026-04-21 18:46 41.87971 8.76780 1800 ft 180 kts 239°
2026-04-21 18:47 41.87349 8.75293 2125 ft 189 kts 242°
2026-04-21 18:47 41.86706 8.73709 2452 ft 197 kts 242°
2026-04-21 18:47 41.86050 8.72093 2765 ft 203 kts 242°
2026-04-21 18:47 41.85422 8.70378 3097 ft 204 kts 256°
2026-04-21 18:48 41.85261 8.68509 3440 ft 204 kts 268°
2026-04-21 18:48 41.85649 8.66730 3761 ft 203 kts 309°
2026-04-21 18:48 41.86415 8.65185 4116 ft 202 kts 295°
2026-04-21 18:48 41.87289 8.63727 4455 ft 201 kts 315°
2026-04-21 18:49 41.88327 8.62505 4792 ft 200 kts 319°
2026-04-21 18:49 41.89415 8.61332 5137 ft 198 kts 320°
2026-04-21 18:49 41.90134 8.60572 5367 ft 197 kts 320°
2026-04-21 18:49 41.91835 8.60065 5795 ft 201 kts
2026-04-21 18:50 41.93164 8.60684 6129 ft 203 kts 19°
2026-04-21 18:50 41.94427 8.61502 6469 ft 203 kts 21°
2026-04-21 18:50 41.95604 8.62308 6786 ft 201 kts 22°
2026-04-21 18:50 41.96916 8.63216 7146 ft 200 kts 21°
2026-04-21 18:51 41.98145 8.64066 7479 ft 198 kts 21°
2026-04-21 18:51 41.99371 8.64915 7816 ft 197 kts 21°
2026-04-21 18:51 42.00587 8.65758 8156 ft 196 kts 20°
2026-04-21 18:51 42.01783 8.66587 8496 ft 195 kts 20°
2026-04-21 18:52 42.02985 8.67422 8838 ft 194 kts 20°
2026-04-21 18:52 42.04149 8.68229 9168 ft 193 kts 20°
2026-04-21 18:52 42.05365 8.69074 9511 ft 192 kts 19°
2026-04-21 18:52 42.06548 8.69896 9852 ft 191 kts 19°
2026-04-21 18:53 42.07722 8.70710 10189 ft 189 kts 19°
2026-04-21 18:53 42.08876 8.71513 10521 ft 188 kts 19°
2026-04-21 18:53 42.10036 8.72319 10858 ft 187 kts 18°
2026-04-21 18:53 42.11187 8.73119 11203 ft 186 kts 18°
2026-04-21 18:54 42.12335 8.73918 11553 ft 184 kts 18°
2026-04-21 18:54 42.13469 8.74708 11899 ft 183 kts 18°
2026-04-21 18:54 42.14579 8.75482 12239 ft 182 kts 18°
2026-04-21 18:54 42.15705 8.76265 12593 ft 180 kts 18°
2026-04-21 18:55 42.16445 8.76781 12826 ft 179 kts 18°
2026-04-21 18:55 42.17871 8.77778 13271 ft 177 kts 17°
2026-04-21 18:55 42.18969 8.78542 13615 ft 176 kts 17°
2026-04-21 18:55 42.20041 8.79290 13960 ft 174 kts 17°
2026-04-21 18:56 42.21101 8.80031 14304 ft 172 kts 17°
2026-04-21 18:56 42.22163 8.80773 14651 ft 171 kts 17°
2026-04-21 18:56 42.23213 8.81508 14997 ft 169 kts 17°
2026-04-21 18:56 42.24237 8.82223 15341 ft 166 kts 16°
2026-04-21 18:57 42.25239 8.82776 15685 ft 156 kts
2026-04-21 18:57 42.26324 8.82974 16049 ft 150 kts 355°
2026-04-21 18:57 42.27341 8.83089 16390 ft 147 kts 354°
2026-04-21 18:57 42.28319 8.83198 16723 ft 145 kts 354°
2026-04-21 18:58 42.29358 8.83311 16960 ft 150 kts 354°
2026-04-21 18:58 42.30474 8.83422 16978 ft 168 kts 355°
2026-04-21 18:58 42.31691 8.83556 16976 ft 183 kts 356°
2026-04-21 18:58 42.32997 8.83703 16972 ft 194 kts 356°
2026-04-21 18:59 42.34357 8.83853 16966 ft 204 kts 359°
2026-04-21 18:59 42.35796 8.84162 16965 ft 212 kts
2026-04-21 18:59 42.37274 8.84516 16963 ft 217 kts
2026-04-21 18:59 42.38772 8.84871 16961 ft 221 kts
2026-04-21 19:00 42.40283 8.85104 16965 ft 217 kts 351°
2026-04-21 19:00 42.41810 8.85007 16955 ft 220 kts 353°
2026-04-21 19:00 42.43356 8.85046 16954 ft 223 kts 355°
2026-04-21 19:00 42.44908 8.85147 16949 ft 225 kts 356°
2026-04-21 19:01 42.46460 8.85281 16946 ft 226 kts 356°
2026-04-21 19:01 42.48040 8.85438 16944 ft 227 kts 357°
2026-04-21 19:01 42.49619 8.85604 16944 ft 229 kts 357°
2026-04-21 19:01 42.51224 8.85778 16945 ft 232 kts 358°
2026-04-21 19:02 42.52832 8.85954 16944 ft 235 kts 358°
2026-04-21 19:02 42.54481 8.86141 16939 ft 237 kts 358°
2026-04-21 19:02 42.56118 8.86326 16938 ft 238 kts 358°
2026-04-21 19:02 42.57776 8.86515 16936 ft 239 kts 358°
2026-04-21 19:03 42.59432 8.86702 16931 ft 239 kts 358°
2026-04-21 19:03 42.61087 8.86892 16932 ft 240 kts 358°
2026-04-21 19:03 42.62752 8.87080 16929 ft 240 kts 358°
2026-04-21 19:03 42.64326 8.87259 16930 ft 240 kts 358°
2026-04-21 19:04 42.66083 8.87461 16926 ft 240 kts 358°
2026-04-21 19:04 42.67755 8.87651 16924 ft 240 kts 358°
2026-04-21 19:04 42.69413 8.87829 16920 ft 240 kts 356°
2026-04-21 19:04 42.71074 8.88024 16921 ft 241 kts 358°
2026-04-21 19:05 42.72762 8.88218 16914 ft 241 kts 358°
2026-04-21 19:05 42.74440 8.88412 16916 ft 241 kts 358°
2026-04-21 19:05 42.76105 8.88601 16910 ft 241 kts 358°
2026-04-21 19:05 42.77784 8.88794 16898 ft 241 kts 358°
2026-04-21 19:06 42.79445 8.88984 16910 ft 240 kts 358°
2026-04-21 19:06 42.81107 8.89174 16908 ft 240 kts 358°
2026-04-21 19:06 42.82776 8.89364 16908 ft 240 kts 358°
2026-04-21 19:06 42.84423 8.89553 16909 ft 240 kts 358°
2026-04-21 19:07 42.86098 8.89745 16913 ft 240 kts 358°
2026-04-21 19:07 42.87752 8.89934 16911 ft 241 kts 358°
2026-04-21 19:07 42.89426 8.90125 16909 ft 241 kts 358°
2026-04-21 19:07 42.91108 8.90317 16912 ft 241 kts 358°
2026-04-21 19:08 42.92766 8.90507 16905 ft 241 kts 358°
2026-04-21 19:08 42.94443 8.90699 16902 ft 241 kts 358°
2026-04-21 19:08 42.96115 8.90891 16901 ft 240 kts 358°
2026-04-21 19:08 42.97769 8.91083 16907 ft 240 kts 358°
2026-04-21 19:09 42.99446 8.91276 16901 ft 240 kts 358°
2026-04-21 19:09 43.01104 8.91467 16899 ft 240 kts 358°
2026-04-21 19:09 43.02775 8.91659 16898 ft 240 kts 358°
2026-04-21 19:09 43.04433 8.91850 16901 ft 239 kts 358°
2026-04-21 19:10 43.06083 8.92039 16905 ft 239 kts 358°
2026-04-21 19:10 43.07748 8.92232 16900 ft 240 kts 358°
2026-04-21 19:10 43.09420 8.92423 16899 ft 240 kts 358°
2026-04-21 19:10 43.11078 8.92614 16909 ft 240 kts 357°
2026-04-21 19:11 43.12728 8.92807 16913 ft 240 kts 358°
2026-04-21 19:11 43.14315 8.92988 16912 ft 240 kts 358°
2026-04-21 19:11 43.16056 8.93189 16919 ft 240 kts 358°
2026-04-21 19:11 43.17721 8.93381 16922 ft 240 kts 358°
2026-04-21 19:12 43.18834 8.93511 16921 ft 240 kts 358°
2026-04-21 19:12 43.21039 8.93765 16919 ft 240 kts 357°
2026-04-21 19:12 43.22706 8.93960 16921 ft 239 kts 358°
2026-04-21 19:12 43.24373 8.94153 16921 ft 239 kts 358°
2026-04-21 19:13 43.26025 8.94343 16918 ft 239 kts 358°
2026-04-21 19:13 43.27660 8.94532 16919 ft 239 kts 358°
2026-04-21 19:13 43.29345 8.94728 16918 ft 239 kts 358°
2026-04-21 19:13 43.31005 8.94922 16916 ft 239 kts 357°
2026-04-21 19:14 43.32664 8.95117 16916 ft 239 kts 357°
2026-04-21 19:14 43.34318 8.95309 16917 ft 239 kts 357°
2026-04-21 19:14 43.35968 8.95500 16917 ft 238 kts 357°
2026-04-21 19:14 43.37616 8.95692 16915 ft 238 kts 357°
2026-04-21 19:15 43.39270 8.95886 16917 ft 238 kts 357°
2026-04-21 19:15 43.40905 8.96087 16920 ft 238 kts 358°
2026-04-21 19:15 43.42556 8.96292 16921 ft 238 kts 358°
2026-04-21 19:15 43.44194 8.96493 16923 ft 238 kts 358°
2026-04-21 19:16 43.45846 8.96697 16925 ft 238 kts 357°
2026-04-21 19:16 43.47504 8.96901 16922 ft 238 kts 358°
2026-04-21 19:16 43.49138 8.97103 16922 ft 238 kts 358°
2026-04-21 19:16 43.50790 8.97307 16925 ft 238 kts 357°
2026-04-21 19:17 43.54092 8.97716 16924 ft 238 kts 357°
2026-04-21 19:17 43.55716 8.97907 16923 ft 237 kts 357°
2026-04-21 19:17 43.57368 8.98100 16923 ft 237 kts 357°
2026-04-21 19:18 43.59022 8.98292 16922 ft 237 kts 357°
2026-04-21 19:18 43.60665 8.98483 16923 ft 237 kts 357°
2026-04-21 19:18 43.62299 8.98673 16848 ft 239 kts 357°
2026-04-21 19:18 43.63958 8.98864 16701 ft 242 kts 357°
2026-04-21 19:19 43.65651 8.99060 16523 ft 245 kts 357°
2026-04-21 19:19 43.67353 8.99257 16321 ft 248 kts 357°
2026-04-21 19:19 43.69092 8.99458 16099 ft 251 kts 358°
2026-04-21 19:19 43.70847 8.99664 15873 ft 253 kts 358°
2026-04-21 19:20 43.72586 8.99867 15653 ft 255 kts 358°
2026-04-21 19:20 43.74368 9.00078 15429 ft 256 kts 358°
2026-04-21 19:20 43.76149 9.00285 15203 ft 257 kts 358°
2026-04-21 19:20 43.77944 9.00496 14983 ft 258 kts 358°
2026-04-21 19:21 43.79716 9.00707 14909 ft 253 kts 359°
2026-04-21 19:21 43.81436 9.00918 14905 ft 248 kts 359°
2026-04-21 19:21 43.83140 9.01126 14905 ft 243 kts 358°
2026-04-21 19:21 43.84814 9.01332 14904 ft 240 kts 358°
2026-04-21 19:22 43.86476 9.01533 14904 ft 238 kts 358°
2026-04-21 19:22 43.88101 9.01729 14903 ft 236 kts 358°
2026-04-21 19:22 43.89739 9.01929 14902 ft 235 kts 358°
2026-04-21 19:22 43.91372 9.02128 14901 ft 234 kts 358°
2026-04-21 19:23 43.92997 9.02325 14902 ft 233 kts 358°
2026-04-21 19:23 43.94550 9.03052 14891 ft 250 kts 29°
2026-04-21 19:23 43.95805 9.04726 14898 ft 256 kts 40°
2026-04-21 19:23 43.96967 9.06614 14900 ft 257 kts 42°
2026-04-21 19:24 43.98116 9.08518 14901 ft 257 kts 42°
2026-04-21 19:24 43.99249 9.10389 14902 ft 256 kts 41°
2026-04-21 19:24 44.00404 9.12294 14903 ft 257 kts 41°
2026-04-21 19:24 44.01551 9.14181 14904 ft 257 kts 41°
2026-04-21 19:25 44.02665 9.16142 14907 ft 259 kts 45°
2026-04-21 19:25 44.03740 9.18112 14908 ft 259 kts 45°
2026-04-21 19:25 44.04832 9.20108 14910 ft 259 kts 45°
2026-04-21 19:25 44.05922 9.22097 14908 ft 259 kts 45°
2026-04-21 19:26 44.07006 9.24082 14915 ft 259 kts 45°
2026-04-21 19:26 44.08096 9.26077 14910 ft 259 kts 45°
2026-04-21 19:26 44.09179 9.28055 14913 ft 259 kts 44°
2026-04-21 19:26 44.10269 9.30044 14923 ft 259 kts 44°
2026-04-21 19:27 44.11373 9.32058 14923 ft 260 kts 45°
2026-04-21 19:27 44.12455 9.34032 14927 ft 260 kts 45°
2026-04-21 19:27 44.13611 9.35946 14920 ft 252 kts 30°
2026-04-21 19:27 44.15172 9.36633 14939 ft 229 kts 352°
2026-04-21 19:28 44.16709 9.36274 14932 ft 221 kts 332°
2026-04-21 19:28 44.18207 9.35751 14906 ft 233 kts 359°
2026-04-21 19:28 44.19720 9.36731 14921 ft 250 kts 28°
2026-04-21 19:28 44.21013 9.38371 14931 ft 257 kts 41°
2026-04-21 19:29 44.22408 9.39703 14879 ft 245 kts 15°
2026-04-21 19:29 44.24018 9.40620 14659 ft 254 kts 17°
2026-04-21 19:29 44.25317 9.42379 14412 ft 280 kts 55°
2026-04-21 19:29 44.25735 9.45111 14170 ft 297 kts 90°
2026-04-21 19:30 44.25049 9.47805 13957 ft 303 kts 125°
2026-04-21 19:30 44.23492 9.49669 13931 ft 295 kts 149°
2026-04-21 19:30 44.21746 9.51133 13926 ft 290 kts 152°
2026-04-21 19:30 44.20010 9.52527 13817 ft 291 kts 152°
2026-04-21 19:31 44.18232 9.53941 13599 ft 295 kts 152°
2026-04-21 19:31 44.16431 9.55367 13374 ft 297 kts 152°
2026-04-21 19:31 44.14599 9.56643 13138 ft 295 kts 166°
2026-04-21 19:31 44.12617 9.56640 12888 ft 279 kts 201°
2026-04-21 19:32 44.10876 9.55586 12669 ft 270 kts 210°
2026-04-21 19:32 44.09227 9.54413 12453 ft 266 kts 212°
2026-04-21 19:32 44.07587 9.53215 12228 ft 264 kts 212°
2026-04-21 19:32 44.05988 9.52041 12009 ft 262 kts 212°
2026-04-21 19:33 44.04913 9.51242 11859 ft 261 kts 212°
2026-04-21 19:33 44.02806 9.49652 11566 ft 258 kts 214°
2026-04-21 19:33 44.01590 9.47934 11328 ft 249 kts 239°
2026-04-21 19:33 44.00656 9.45904 11112 ft 248 kts 242°
2026-04-21 19:34 43.99773 9.43857 10944 ft 245 kts 242°
2026-04-21 19:34 43.98922 9.41862 10922 ft 239 kts 242°
2026-04-21 19:34 43.98080 9.39884 10924 ft 235 kts 243°
2026-04-21 19:34 43.97247 9.37946 10926 ft 232 kts 242°
2026-04-21 19:35 43.96433 9.36053 10926 ft 230 kts 242°
2026-04-21 19:35 43.94818 9.32270 10924 ft 227 kts 242°
2026-04-21 19:35 43.94334 9.30269 10909 ft 218 kts 275°
2026-04-21 19:36 43.94929 9.28392 10914 ft 213 kts 306°
2026-04-21 19:36 43.95890 9.26857 10740 ft 215 kts 311°
2026-04-21 19:36 43.96930 9.25339 10518 ft 218 kts 312°
2026-04-21 19:36 43.98038 9.23892 10282 ft 222 kts 327°
2026-04-21 19:37 43.99560 9.23645 10046 ft 230 kts 10°
2026-04-21 19:37 44.00998 9.24616 9828 ft 233 kts 27°
2026-04-21 19:37 44.02346 9.25864 9605 ft 231 kts 31°
2026-04-21 19:37 44.03656 9.27153 9383 ft 228 kts 32°
2026-04-21 19:38 44.04923 9.28424 9161 ft 226 kts 33°
2026-04-21 19:38 44.06186 9.29700 8943 ft 224 kts 33°
2026-04-21 19:38 44.07025 9.30551 8800 ft 222 kts 33°
2026-04-21 19:38 44.08678 9.32231 8507 ft 220 kts 33°
2026-04-21 19:39 44.09912 9.33484 8283 ft 219 kts 33°
2026-04-21 19:39 44.11123 9.34713 8065 ft 217 kts 34°
2026-04-21 19:39 44.12340 9.35951 7842 ft 216 kts 34°
2026-04-21 19:39 44.13553 9.37186 7598 ft 215 kts 33°
2026-04-21 19:40 44.14919 9.37791 7335 ft 212 kts 353°
2026-04-21 19:40 44.16286 9.37078 7081 ft 211 kts 329°
2026-04-21 19:40 44.17505 9.35940 6813 ft 211 kts 324°
2026-04-21 19:40 44.18693 9.34716 6431 ft 215 kts 323°
2026-04-21 19:41 44.19894 9.33453 6034 ft 216 kts 323°
2026-04-21 19:41 44.21086 9.32194 5639 ft 216 kts 323°
2026-04-21 19:41 44.22281 9.30934 5239 ft 216 kts 323°
2026-04-21 19:41 44.23472 9.29673 4839 ft 216 kts 324°
2026-04-21 19:42 44.24654 9.28425 4504 ft 210 kts 324°
2026-04-21 19:42 44.25782 9.27233 4457 ft 196 kts 324°
2026-04-21 19:42 44.26844 9.26108 4463 ft 192 kts 324°
2026-04-21 19:42 44.27844 9.25049 4460 ft 191 kts 324°
2026-04-21 19:43 44.29057 9.24140 4463 ft 186 kts 344°
2026-04-21 19:43 44.30106 9.23088 4476 ft 189 kts 316°
2026-04-21 19:43 44.31064 9.21820 4470 ft 193 kts 320°
2026-04-21 19:43 44.32110 9.20594 4469 ft 196 kts 323°
2026-04-21 19:44 44.33163 9.19426 4468 ft 194 kts 320°
2026-04-21 19:44 44.33868 9.17832 4477 ft 191 kts 292°
2026-04-21 19:44 44.34246 9.16099 4470 ft 187 kts 285°
2026-04-21 19:44 44.34584 9.14348 4394 ft 189 kts 286°
2026-04-21 19:45 44.34956 9.12528 4144 ft 199 kts 287°
2026-04-21 19:45 44.35360 9.10647 3873 ft 205 kts 288°
2026-04-21 19:45 44.35774 9.08767 3590 ft 193 kts 288°
2026-04-21 19:45 44.36156 9.07045 3323 ft 181 kts 289°
2026-04-21 19:46 44.36527 9.05382 3080 ft 178 kts 289°
2026-04-21 19:46 44.36871 9.03830 2876 ft 174 kts 289°
2026-04-21 19:46 44.37246 9.02163 2604 ft 172 kts 289°
2026-04-21 19:46 44.37604 9.00563 2351 ft 172 kts 289°
2026-04-21 19:47 44.37959 8.98976 2097 ft 172 kts 289°
2026-04-21 19:47 44.38309 8.97406 1849 ft 169 kts 289°
2026-04-21 19:47 44.38649 8.95874 1609 ft 161 kts 289°
2026-04-21 19:47 44.38968 8.94459 1364 ft 140 kts 290°
2026-04-21 19:48 44.39265 8.93229 1127 ft 131 kts 291°
2026-04-21 19:48 44.39547 8.92097 1044 ft 116 kts 290°
2026-04-21 19:48 44.39806 8.91090 912 ft 105 kts 290°
2026-04-21 19:48 44.40017 8.90137 697 ft 98 kts 289°
2026-04-21 19:49 44.40188 8.89302 524 ft 82 kts 285°
2026-04-21 19:49 44.40342 8.88545 406 ft 81 kts 284°
2026-04-21 19:49 44.40495 8.87728 333 ft 93 kts 282°
2026-04-21 19:49 44.40656 8.86863 220 ft 90 kts 287°
2026-04-21 19:50 44.40770 8.86332 131 ft 84 kts 285°
2026-04-21 19:50 44.40969 8.85352 21 ft 68 kts 282°
2026-04-21 19:50 44.41047 8.84945 17 ft 25 kts 285°
2026-04-21 19:50 44.41131 8.84853 16 ft 12 kts 44°
2026-04-21 19:51 44.41172 8.84897 17 ft 0 kts
2026-04-21 19:51 44.41210 8.84908 17 ft 8 kts 12°
2026-04-21 19:51 44.41285 8.84933 18 ft 12 kts 14°
2026-04-21 19:52 44.41348 8.85005 20 ft 13 kts 110°
2026-04-21 19:52 44.41300 8.85037 20 ft 9 kts 200°
2026-04-21 19:52 44.41284 8.85030 19 ft 0 kts 194°